Hofstra University South Campus NY US WEATHERSTEM current weather conditions

sailwx.info

Wind from 311 at 7 knots gusting 21

Air temperature 5.8° C
Dewpoint -2.3° C

Last reported at 2019-Dec-05 16:00 UTC.
Time now 2019-Dec-05 16:50 UTC

Location: N 40°43' W 073°36'.
View on Google Maps.

See reports from other nearby stations

  
Tides and Currents Weather Stations Pressure Air Temp Water Temp Dewpoint Dewpoint Depression Visibility Wind Speed Wind Dir Waves Ship Positions
date/time (UTC)wind fromknots sea level pressurealtimeterstation pressurevisibilityair tempwater tempwave heightnotes
2019-Dec-05 16:00 311 7 gusting 21 5.8
2019-Dec-05 15:50 192 11 gusting 22 5.4
2019-Dec-05 15:40 298 7 gusting 19 5.5
2019-Dec-05 15:30 290 9 gusting 22 5.5
2019-Dec-05 15:20 260 13 gusting 18 5.3
2019-Dec-05 15:10 261 6 gusting 22 5.2
2019-Dec-05 15:00 286 13 gusting 19 5.2
2019-Dec-05 14:50 303 13 gusting 21 5.1
2019-Dec-05 14:40 302 6 gusting 19 5.1
2019-Dec-05 14:30 278 8 gusting 19 4.9
2019-Dec-05 14:20 271 18 gusting 23 4.9
2019-Dec-05 14:10 286 7 gusting 19 4.9
2019-Dec-05 14:00 290 6 gusting 20 4.8
2019-Dec-05 13:50 330 5 gusting 19 4.6
2019-Dec-05 13:40 283 13 gusting 19 4.5
2019-Dec-05 13:30 292 9 gusting 16 4.4
2019-Dec-05 13:20 280 8 gusting 14 4.3
2019-Dec-05 13:10 239 10 gusting 17 4.3
2019-Dec-05 13:00 277 5 gusting 13 4.1
2019-Dec-05 12:50 304 8 gusting 17 4.0
2019-Dec-05 12:40 246 4 gusting 16 3.9
2019-Dec-05 12:30 294 3 gusting 16 3.8
2019-Dec-05 12:20 295 12 gusting 13 3.7
2019-Dec-05 12:10 304 2 gusting 13 3.7
2019-Dec-05 12:00 268 6 gusting 11 3.7
2019-Dec-05 11:50 288 6 gusting 8 3.8
2019-Dec-05 11:40 294 6 gusting 11 3.8
2019-Dec-05 11:30 248 2 gusting 11 3.7
2019-Dec-05 11:20 265 8 gusting 12 3.7
2019-Dec-05 11:10 281 7 gusting 9 3.6
2019-Dec-05 11:00 281 10 gusting 11 3.6
2019-Dec-05 10:50 275 6 gusting 12 3.6
2019-Dec-05 10:40 282 5 gusting 13 3.4
2019-Dec-05 10:30 265 6 gusting 13 3.3
2019-Dec-05 10:20 278 6 gusting 11 3.3
2019-Dec-05 10:10 329 8 gusting 10 3.3
2019-Dec-05 10:00 287 3 gusting 13 3.2
2019-Dec-05 09:50 287 6 gusting 11 3.2
2019-Dec-05 09:40 3.2
2019-Dec-05 09:30 213 1 gusting 7 3.1
2019-Dec-05 09:20 286 0 gusting 7 2.9
2019-Dec-05 09:10 280 2 gusting 6 3.0
2019-Dec-05 09:00 274 2 gusting 6 2.9
2019-Dec-05 08:50 221 0 gusting 6 3.1
2019-Dec-05 08:40 240 1 gusting 6 3.1
2019-Dec-05 08:30 223 1 gusting 6 3.2
2019-Dec-05 08:20 225 3 gusting 6 3.2
2019-Dec-05 08:10 256 6 gusting 8 3.2
2019-Dec-05 08:00 251 4 gusting 7 3.3
2019-Dec-05 07:50 242 0 gusting 6 3.4
2019-Dec-05 07:40 236 0 gusting 3 3.7
2019-Dec-05 07:30 235 0 gusting 2 3.3
2019-Dec-05 07:20 269 1 gusting 3 2.9
2019-Dec-05 07:10 296 0 gusting 4 2.9
2019-Dec-05 07:00 289 2 gusting 3 3.1
2019-Dec-05 06:50 3.2
2019-Dec-05 06:40 257 0 gusting 7 3.3
2019-Dec-05 06:30 219 6 gusting 6 3.3
2019-Dec-05 06:20 221 5 gusting 8 3.3
2019-Dec-05 06:10 231 3 gusting 7 3.3
2019-Dec-05 06:00 207 4 gusting 7 3.4
2019-Dec-05 05:50 209 3 gusting 7 3.7
2019-Dec-05 05:40 224 3 gusting 6 3.8
2019-Dec-05 05:30 234 2 gusting 6 3.7
2019-Dec-05 05:20 230 3 gusting 7 3.7
2019-Dec-05 05:10 206 4 gusting 6 3.7
2019-Dec-05 05:00 238 0 gusting 11 3.7
2019-Dec-05 04:50 271 3 gusting 8 3.7
2019-Dec-05 04:40 277 3 gusting 8 3.6
2019-Dec-05 04:30 233 6 gusting 12 3.5
2019-Dec-05 04:20 237 9 gusting 12 3.5
2019-Dec-05 04:10 202 3 gusting 12 3.6
2019-Dec-05 04:00 246 3 gusting 8 3.7
2019-Dec-05 03:50 234 4 gusting 7 3.7
2019-Dec-05 03:40 229 4 gusting 8 3.8
2019-Dec-05 03:30 224 3 gusting 8 3.8
2019-Dec-05 03:20 215 2 gusting 11 3.8
2019-Dec-05 03:10 213 2 gusting 8 3.8
2019-Dec-05 03:00 209 5 gusting 10 3.8
2019-Dec-05 02:50 232 6 gusting 9 3.9
2019-Dec-05 02:40 211 2 gusting 8 3.8
2019-Dec-05 02:30 212 3 gusting 12 3.9
2019-Dec-05 02:20 252 8 gusting 9 3.9
2019-Dec-05 02:10 232 6 gusting 12 3.9
2019-Dec-05 02:00 234 6 gusting 13 4.0
2019-Dec-05 01:50 247 2 gusting 13 4.1
2019-Dec-05 01:40 241 8 gusting 14 4.1
2019-Dec-05 01:30 241 12 gusting 13 4.1
2019-Dec-05 01:20 231 2 gusting 11 4.3
2019-Dec-05 01:10 231 4 gusting 11 4.3
2019-Dec-05 01:00 248 8 gusting 11 4.4
2019-Dec-05 00:50 250 8 gusting 8 4.3
2019-Dec-05 00:40 215 3 gusting 7 4.4
2019-Dec-05 00:30 213 1 gusting 8 4.3
2019-Dec-05 00:20 227 3 gusting 8 4.3
2019-Dec-05 00:10 242 4.3
2019-Dec-05 00:00 210 4 gusting 8 4.3
2019-Dec-04 23:50 228 5 gusting 6 4.6
2019-Dec-04 23:40 219 0 gusting 6 4.4
2019-Dec-04 23:30 246 4 gusting 7 4.3
2019-Dec-04 23:20 217 1 gusting 7 4.2
2019-Dec-04 23:10 229 4 gusting 12 4.2
2019-Dec-04 23:00 223 2 gusting 9 4.2
2019-Dec-04 22:50 230 0 gusting 8 4.2
2019-Dec-04 22:40 242 6 gusting 7 4.4
2019-Dec-04 22:30 222 0 gusting 8 4.4
2019-Dec-04 22:20 220 5 gusting 9 4.3
2019-Dec-04 22:10 217 1 gusting 8 4.2
2019-Dec-04 22:00 225 5 gusting 8 4.2
2019-Dec-04 21:50 223 5 gusting 10 4.3
2019-Dec-04 21:40 227 7 gusting 9 4.3
2019-Dec-04 21:30 229 3 gusting 11 4.4
2019-Dec-04 21:20 215 3 gusting 8 4.4
2019-Dec-04 21:10 244 0 gusting 12 4.3
2019-Dec-04 21:00 259 3 gusting 8 4.3
2019-Dec-04 20:50 246 7 gusting 11 4.3
2019-Dec-04 20:40 258 1 gusting 12 4.3
2019-Dec-04 20:30 239 9 gusting 12 4.3
2019-Dec-04 20:20 225 1 gusting 8 4.3
2019-Dec-04 20:10 216 2 gusting 10 4.2
2019-Dec-04 20:00 211 6 gusting 14 4.2
2019-Dec-04 19:50 267 12 gusting 12 4.1
2019-Dec-04 19:40 199 6 gusting 13 4.1
2019-Dec-04 19:30 232 2 gusting 9 4.3
2019-Dec-04 19:20 219 6 gusting 7 4.1
2019-Dec-04 19:10 219 5 gusting 8 4.0
2019-Dec-04 19:00 4.0
2019-Dec-04 18:50 240 6 gusting 9 3.9
2019-Dec-04 18:40 236 11 gusting 11 4.1
2019-Dec-04 18:30 245 4 gusting 7 4.1
2019-Dec-04 18:20 249 1 gusting 9 3.9
2019-Dec-04 18:10 236 3 gusting 11 3.9
2019-Dec-04 18:00 294 1 gusting 12 3.9
2019-Dec-04 17:50 3.9
2019-Dec-04 17:40 263 5 gusting 11 3.8
2019-Dec-04 17:30 231 2 gusting 13 4.0
2019-Dec-04 17:20 209 3 gusting 12 4.1
2019-Dec-04 17:10 242 5 gusting 10 3.9
2019-Dec-04 17:00 225 6 gusting 12 4.1
2019-Dec-04 16:50 220 6 gusting 14 4.1
2019-Dec-04 16:40 232 5 gusting 12 4.5
2019-Dec-04 16:30 248 3 gusting 7 4.3
2019-Dec-04 16:20 247 6 gusting 9 4.2
2019-Dec-04 16:10 277 5 gusting 9 4.2
2019-Dec-04 16:00 253 1 gusting 8 3.9
2019-Dec-04 15:40 244 7 gusting 8 3.8
2019-Dec-04 15:30 261 0 gusting 8 3.7
2019-Dec-04 15:20 247 6 gusting 7 3.6
2019-Dec-04 15:10 255 7 gusting 9 3.5
2019-Dec-04 15:00 222 6 gusting 12 3.4
2019-Dec-04 14:50 214 3 gusting 11 3.5
2019-Dec-04 14:40 247 2 gusting 12 3.4
2019-Dec-04 14:30 213 4 gusting 7 3.7
2019-Dec-04 14:20 242 2 gusting 9 3.3
2019-Dec-04 14:10 224 3 gusting 7 3.2
2019-Dec-04 14:00 208 1 gusting 10 3.0
2019-Dec-04 13:50 232 4 gusting 9 3.0
2019-Dec-04 13:40 219 2 gusting 8 3.0
2019-Dec-04 13:30 235 8 gusting 8 2.9
2019-Dec-04 13:20 204 2 gusting 6 2.8
2019-Dec-04 13:10 240 6 gusting 12 2.6
2019-Dec-04 13:00 208 2.4
2019-Dec-04 12:50 218 3 gusting 7 2.4
2019-Dec-04 12:40 196 1 gusting 6 2.6
2019-Dec-04 12:30 232 5 gusting 7 2.3
2019-Dec-04 12:20 225 3 gusting 6 2.4
2019-Dec-04 12:10 227 3 gusting 5 2.6
2019-Dec-04 12:00 215 0 gusting 6 2.2
2019-Dec-04 11:50 233 6 gusting 7 2.2
2019-Dec-04 11:40 230 6 gusting 6 2.3
2019-Dec-04 11:30 214 2 gusting 6 2.1
2019-Dec-04 11:20 192 2 gusting 6 2.0
2019-Dec-04 11:10 189 0 gusting 5 1.9
2019-Dec-04 11:00 196 2 gusting 3 2.1
2019-Dec-04 10:50 222 2.2
2019-Dec-04 10:40 211 1 gusting 3 2.2
2019-Dec-04 10:30 229 2 gusting 4 1.7
2019-Dec-04 10:20 1.7
2019-Dec-04 10:10 185 0 gusting 2 2.0
2019-Dec-04 10:00 185 0 gusting 2 2.1
2019-Dec-04 09:50 1.5
2019-Dec-04 09:40 1.4
2019-Dec-04 09:30 1.6
2019-Dec-04 09:20 209 0 gusting 1 1.6
2019-Dec-04 09:10 1.3
2019-Dec-04 09:00 264 0 gusting 3 1.7
2019-Dec-04 08:50 1.7
2019-Dec-04 08:40 1.6
2019-Dec-04 08:30 272 1 gusting 2 1.1
2019-Dec-04 08:20 1.1
2019-Dec-04 08:10 253 0 gusting 4 1.2
2019-Dec-04 08:00 253 3 gusting 7 0.9
2019-Dec-04 07:50 281 1 gusting 8 0.8
2019-Dec-04 07:40 284 3 gusting 7 0.9
2019-Dec-04 07:30 289 3 gusting 7 0.8
2019-Dec-04 07:20 246 2 gusting 8 0.7
2019-Dec-04 07:10 273 6 gusting 9 0.6
2019-Dec-04 07:00 259 1 gusting 6 0.6
2019-Dec-04 06:50 237 3 gusting 6 0.7
2019-Dec-04 06:40 223 2 gusting 7 0.6
2019-Dec-04 06:30 281 0 gusting 8 0.6
2019-Dec-04 06:20 271 6 gusting 8 0.6
2019-Dec-04 06:10 294 3 gusting 7 0.6
2019-Dec-04 06:00 317 5 gusting 9 0.6
2019-Dec-04 05:50 292 6 gusting 10 0.7
2019-Dec-04 05:40 325 4 gusting 9 0.8
2019-Dec-04 05:30 323 3 gusting 9 0.8
2019-Dec-04 05:20 271 6 gusting 9 0.8
2019-Dec-04 05:10 305 2 gusting 13 0.8
2019-Dec-04 05:00 244 7 gusting 11 0.8
2019-Dec-04 04:50 271 6 gusting 12 0.8
2019-Dec-04 04:40 299 4 gusting 9 0.8
2019-Dec-04 04:30 277 3 gusting 9 0.7
2019-Dec-04 04:20 302 6 gusting 9 0.6
2019-Dec-04 04:10 325 3 gusting 10 0.6
2019-Dec-04 04:00 269 2 gusting 8 0.6
2019-Dec-04 03:50 298 1 gusting 8 0.6
2019-Dec-04 03:40 294 2 gusting 10 0.6
2019-Dec-04 03:30 259 3 gusting 10 0.6
2019-Dec-04 03:20 270 6 gusting 10 0.6
2019-Dec-04 03:10 273 5 gusting 8 0.6
2019-Dec-04 03:00 298 2 gusting 7 0.7
2019-Dec-04 02:50 276 0 gusting 12 0.7
2019-Dec-04 02:40 296 7 gusting 11 0.7
2019-Dec-04 02:30 275 5 gusting 9 0.8
2019-Dec-04 02:20 327 3 gusting 8 0.8
2019-Dec-04 02:10 286 5 gusting 9 0.7
2019-Dec-04 02:00 257 2 gusting 9 0.7
2019-Dec-04 01:50 313 5 gusting 11 0.7
2019-Dec-04 01:40 259 1 gusting 14 0.7
2019-Dec-04 01:30 244 6 gusting 13 0.7
2019-Dec-04 01:20 300 6 gusting 13 0.8
2019-Dec-04 01:10 336 2 gusting 12 0.8
2019-Dec-04 01:00 304 6 gusting 9 0.8
2019-Dec-04 00:50 059 0.9
2019-Dec-04 00:40 293 8 gusting 14 0.9
2019-Dec-04 00:30 317 4 gusting 16 1.0
2019-Dec-04 00:20 328 4 gusting 13 1.0
2019-Dec-04 00:10 310 6 gusting 13 1.0
2019-Dec-04 00:00 286 8 gusting 13 1.2
2019-Dec-03 23:50 278 5 gusting 19 1.2
2019-Dec-03 23:40 273 7 gusting 13 1.2
2019-Dec-03 23:30 298 11 gusting 14 1.2
2019-Dec-03 23:20 278 10 gusting 17 1.3
2019-Dec-03 23:10 336 9 gusting 15 1.3
2019-Dec-03 23:00 294 13 gusting 16 1.4
2019-Dec-03 22:50 263 7 gusting 14 1.5
2019-Dec-03 22:40 298 6 gusting 15 1.6
2019-Dec-03 22:30 304 10 gusting 15 1.6
2019-Dec-03 22:20 315 7 gusting 13 1.8
2019-Dec-03 22:10 276 0 gusting 19 1.8
2019-Dec-03 22:00 355 7 gusting 14 1.9
2019-Dec-03 21:50 323 8 gusting 21 1.9
2019-Dec-03 21:40 304 11 gusting 24 2.0
2019-Dec-03 21:30 300 13 gusting 21 2.1
2019-Dec-03 21:20 289 7 gusting 20 2.2
2019-Dec-03 21:10 299 6 gusting 19 2.3
2019-Dec-03 21:00 263 13 gusting 21 2.3
2019-Dec-03 20:50 309 7 gusting 20 2.3
2019-Dec-03 20:40 304 11 gusting 18 2.3
2019-Dec-03 20:30 355 5 gusting 20 2.3
2019-Dec-03 20:20 315 9 gusting 22 2.3
2019-Dec-03 20:10 274 13 gusting 22 2.3
2019-Dec-03 20:00 326 9 gusting 25 2.3
2019-Dec-03 19:50 306 11 gusting 26 2.3
2019-Dec-03 19:40 309 13 gusting 21 2.3
2019-Dec-03 19:30 297 14 gusting 20 2.3
2019-Dec-03 19:20 262 8 gusting 19 2.3
2019-Dec-03 19:10 330 13 gusting 20 2.4
2019-Dec-03 19:00 303 9 gusting 19 2.3
2019-Dec-03 18:50 340 4 gusting 21 2.4
2019-Dec-03 18:40 324 14 gusting 20 2.3
2019-Dec-03 18:30 271 11 gusting 20 2.1
2019-Dec-03 18:20 293 15 gusting 22 2.0
2019-Dec-03 18:10 302 7 gusting 21 2.0
2019-Dec-03 18:00 319 10 gusting 17 1.9
2019-Dec-03 17:50 319 16 gusting 16 1.9
2019-Dec-03 17:40 304 7 gusting 15 1.8
2019-Dec-03 17:30 302 10 gusting 18 1.3
2019-Dec-03 17:20 302 8 gusting 20 1.1
2019-Dec-03 17:10 286 12 gusting 18 1.2
2019-Dec-03 17:00 318 9 gusting 18 1.1
2019-Dec-03 16:50 308 19 gusting 19 1.2
2019-Dec-03 16:40 243 3 gusting 22 1.2
2019-Dec-03 16:30 312 7 gusting 17 1.3
2019-Dec-03 16:20 281 6 gusting 19 1.1
2019-Dec-03 16:10 304 7 gusting 15 1.2
2019-Dec-03 16:00 273 12 gusting 13 1.4